RS-40
1 38735U 12041C   15134.29426001  .00000040  00000-0  21992-3 0  9992
2 38735 082.4752 081.1099 0015538 254.2513 105.6862 12.42567328126702
PROITERES
1 38756U 12047B   15134.29891692  .00001207  00000-0  18388-3 0  9994
2 38756 098.2181 233.0135 0013317 051.3391 308.9049 14.75776684144001
BEESAT-3
1 39134U 13015E   15133.55712456  .00011864  00000-0  69379-3 0  9995
2 39134 064.8724 168.2797 0032587 257.2145 102.5336 15.11748500113461
BEESAT-2
1 39136U 13015G   15134.50300238  .00010831  00000-0  65027-3 0  9993
2 39136 064.8727 167.3904 0033105 255.9718 103.8231 15.10210906113577
ZACUBE-1
1 39417U 13066B   15133.70942235  .00002950  00000-0  38901-3 0  9995
2 39417 097.7326 197.5172 0059208 248.2471 111.2433 14.79609228 79531
TRITON-1
1 39427U 13066M   15134.09661209  .00001940  00000-0  32558-3 0  9998
2 39427 097.7182 186.8483 0114415 276.0542 082.7636 14.66572954 78861
DELFIN3XT
1 39428U 13066N   15134.13979716  .00003575  00000-0  60183-3 0  9990
2 39428 097.7184 185.2583 0122989 280.5722 078.1648 14.65260785 78758
GOMX-1
1 39430U 13066Q   15134.37757385  .00001369  00000-0  26335-3 0  9995
2 39430 097.7116 179.9239 0152683 296.6148 061.9515 14.57990461 78450
MO-76
1 39436U 13066W   15134.44584984  .00040220  00000-0  27825-2 0  9995
2 39436 097.7457 210.4301 0023541 214.2641 145.7067 15.05338408 80412
LO-74
1 39440U 13066AA  15134.13549877  .00002747  00000-0  40008-3 0  9999
2 39440 097.7273 193.5514 0080737 257.6000 101.6164 14.74438156 79312
PUCPSAT-1
1 39442U 13066AC  15133.19751209  .00005825  00000-0  62797-3 0  9999
2 39442 097.7411 204.0200 0032087 236.9646 122.8488 14.88421304 78662
SPROUT
1 39770U 14029E   15134.39662227  .00002203  00000-0  27254-3 0  9993
2 39770 097.8678 231.6797 0008599 318.5117 041.5455 14.83742950 52627
POPSAT-HIP1
1 40028U 14033U   15134.47373219  .00002835  00000-0  32325-3 0  9991
2 40028 097.9578 034.7566 0013011 296.6334 063.3600 14.86896670 48770
EO-80
1 40032U 14033Y   15134.39512881  .00002659  00000-0  30583-3 0  9995
2 40032 097.9542 034.3865 0011100 292.2513 067.7585 14.86592932 48765
VELOX-1
1 40057U 14034E   15134.36872261  .00002799  00000-0  41664-3 0  9998
2 40057 098.2159 211.9158 0010862 354.8969 005.2144 14.75711611 46897
DAURIA DX 1
1 40071U 14037C   15134.39947665  .00001324  00000-0  18107-3 0  9990
2 40071 098.3582 204.4197 0008453 358.9947 001.1257 14.80335071 45794
UKUBE-1
1 40074U 14037F   15134.40863482  .00002884  00000-0  37007-3 0  9991
2 40074 098.3595 205.1053 0004710 013.9525 346.1826 14.82067755 45834
HODOYOSHI-1
1 40299U 14070B   15134.48648300  .00006390  00000-0  30729-3 0  9995
2 40299 097.4562 216.4244 0011627 247.8279 177.0157 15.19091232 28706
CHUBUSAT-1
1 40300U 14070C   15134.47040146  .00007131  00000-0  35868-3 0  9994
2 40300 097.4536 215.7972 0021043 250.6751 203.6276 15.17345743 28660
QSAT-EOS
1 40301U 14070D   15134.49023301  .00012519  00000-0  63768-3 0  9997
2 40301 097.4491 215.2250 0031326 251.0173 174.8971 15.16492367 28635
TSUBAME
1 40302U 14070E   15134.47358424  .00007589  00000-0  42887-3 0  9993
2 40302 097.4478 214.3094 0041734 253.8793 228.6328 15.12628613 28577
FIREBIRD FU3
1 40377U 15003B   15134.25551530  .00017977  00000-0  89807-3 0  9996
2 40377 099.1238 161.4526 0159549 005.1644 355.1339 15.07031985 15445
FIREBIRD FU4
1 40378U 15003C   15134.25381875  .00017989  00000-0  89715-3 0  9991
2 40378 099.1222 161.4561 0159836 005.1320 355.1927 15.07052109 15442
GRIFEX
1 40379U 15003D   15134.27598184  .00014353  00000-0  72905-3 0  9992
2 40379 099.1213 161.4371 0160247 006.1398 354.1803 15.06463476 15440
LAMBDA-SAT
1 40458U 98067GB  15134.58165486  .03759445  00000-0  28993-2 0  9998
2 40458 051.6182 243.3186 0013769 328.7750 031.2259 16.13915391 20880
